"Pseudo-MPEC" for 2009 UG

Created 2016 Sep 29 20:29:08 UT using Find_Orb

Astrometry:
     K09U00G  C2009 10 16.22207 00 37 38.71 +15 25 26.9         x18.8  c~0AIF704
     K09U00G  C2009 10 16.23523 00 37 28.56 +15 24 51.0          18.4  c~0AIF704
     K09U00G  C2009 10 16.24839 00 37 18.55 +15 24 17.2          18.4  c~0AIF704
     K09U00G  C2009 10 16.26155 00 37 08.54 +15 23 43.5          18.6  c~0AIF704
     K09U00G  C2009 10 16.27473 00 36 58.52 +15 23 09.2          18.2  c~0AIF704
     K09U00G  C2009 10 16.29951 00 36 40.21 +15 22 07.3          17.9 Vr~0AIF703
     K09U00G  C2009 10 16.30756 00 36 34.12 +15 21 45.8          18.2 Vr~0AIF703
     K09U00G  C2009 10 16.31561 00 36 28.00 +15 21 24.8          18.3 Vr~0AIF703
     K09U00G  C2009 10 16.32362 00 36 21.99 +15 21 03.6          18.5 Vr~0AIF703
     K09U00G  C2009 10 16.37678 00 35 42.21 +15 18 42.6          18.2 Vr~0AIF703
     K09U00G  C2009 10 16.37740 00 35 41.74 +15 18 41.2          18.1 Vr~0AIF703
     K09U00G  C2009 10 16.37800 00 35 41.28 +15 18 39.6          18.4 Vr~0AIF703
     K09U00G  C2009 10 16.37862 00 35 40.84 +15 18 37.7          18.3 Vr~0AIF703
     K09U00G  C2009 10 16.84168 00 30 27.75 +14 58 22.9                r~0AIFJ95
     K09U00G  C2009 10 16.84493 00 30 25.47 +14 58 14.8                r~0AIFJ95
     K09U00G  C2009 10 16.84616 00 30 24.11 +14 58 23.1                v~0AIF204
     K09U00G  C2009 10 16.84669 00 30 24.23 +14 58 10.3          17.8 Rr~0AIFJ95
     K09U00G  C2009 10 16.84834 00 30 22.47 +14 58 21.6          18.2 Cr~0AIFB33
     K09U00G  C2009 10 16.85089 00 30 20.75 +14 58 11.3                v~0AIF204
     K09U00G  C2009 10 16.85200 00 30 19.87 +14 58 13.1          18.3 Cr~0AIFB33
     K09U00G  C2009 10 16.85420 00 30 18.38 +14 58 08.2          18.2 Cr~0AIFB33
     K09U00G  C2009 10 16.85561 00 30 17.39 +14 57 59.9          18.1 Cv~0AIF204
     K09U00G  C2009 10 16.85749 00 30 15.98 +14 57 59.5          18.3 Cr~0AIFB33
     K09U00G  C2009 10 16.90047 00 29 45.57 +14 56 08.1          18.5 Rr~0AIF147
     K09U00G  C2009 10 16.90534 00 29 42.21 +14 55 55.8         x18.3 Rr~0AIF147
     K09U00G  C2009 10 17.17412 00 26 44.59 +14 44 47.0          18.8  r~0AIFH05
     K09U00G  C2009 10 17.18756 00 26 35.29 +14 44 14.3          18.4  r~0AIFH05
     K09U00G  C2009 10 17.19572 00 26 29.60 +14 43 53.8          18.0  r~0AIFH05
     K09U00G  C2009 10 17.21182 00 26 18.78 +14 43 25.4          18.8  c~0AIF704
     K09U00G  C2009 10 17.22489 00 26 09.67 +14 42 52.9          19.0  c~0AIF704
     K09U00G  C2009 10 17.23797 00 26 00.60 +14 42 22.2         x19.2  c~0AIF704
     K09U00G  C2009 10 17.25103 00 25 51.49 +14 41 48.4         x19.1  c~0AIF704
     K09U00G  C2009 10 17.26409 00 25 42.42 +14 41 13.8          19.4  c~0AIF704
     K09U00G  C2009 10 17.65736 00 21 29.97 +14 26 55.8          18.3 Rc~0AIFD21
     K09U00G  C2009 10 17.66106 00 21 27.44 +14 26 47.2          18.4 Rc~0AIFD21
     K09U00G  C2009 10 17.66476 00 21 24.96 +14 26 36.8          18.8 Rc~0AIFD21
     K09U00G  C2009 10 18.22371 00 15 43.48 +14 01 40.2          18.9 Vo~0AIFH55
     K09U00G  C2009 10 18.22635 00 15 41.81 +14 01 33.5          18.7 Vo~0AIFH55
     K09U00G  C2009 10 18.22766 00 15 40.95 +14 01 29.4          18.4 Vo~0AIFH55
     K09U00G  C2009 10 18.23346 00 15 37.30 +14 01 16.5          19.1 Vo~0AIFH55
     K09U00G  C2009 10 18.23478 00 15 36.46 +14 01 13.0          19.2 Vo~0AIFH55
     K09U00G  C2009 10 18.24253 00 15 32.35 +14 00 55.9          18.3 Rr~0AIFH36
     K09U00G  C2009 10 18.24399 00 15 31.41 +14 00 52.3          18.4 Rr~0AIFH36
     K09U00G  C2009 10 18.24544 00 15 30.51 +14 00 48.6          18.1 Rr~0AIFH36
     K09U00G  C2009 10 19.26101 00 05 54.90 +13 20 53.2          19.4 Vo~0AIFH55
     K09U00G  C2009 10 19.26344 00 05 53.52 +13 20 47.3          19.5 Vo~0AIFH55
     K09U00G  C2009 10 19.26718 00 05 51.38 +13 20 37.9          19.2 Vo~0AIFH55
     K09U00G  C2009 10 19.26924 00 05 50.22 +13 20 33.2          19.2 Vo~0AIFH55
     K09U00G  C2009 10 19.78616 00 01 25.70 +13 00 49.3          18.9 Rr~0AIF215
     K09U00G  C2009 10 19.78810 00 01 24.66 +13 00 45.0          19.0 Rr~0AIF215
     K09U00G  C2009 10 19.79005 00 01 23.62 +13 00 40.7          18.8 Rr~0AIF215
     K09U00G  C2009 10 25.07643023 26 28.90 +10 14 32.9          20.4 Vo~0Ad2H55
     K09U00G  C2009 10 25.07770623 26 28.47 +10 14 30.5          20.0 Vo~0Ad2H55
     K09U00G  C2009 10 25.08154123 26 27.24 +10 14 23.2         x19.0 Vo~0Ad2H55
     K09U00G  C2009 11 08.27367 22 49 15.87 +06 35 38.8          21.7 Vo~0B1I291
     K09U00G HC2009 11 08.27741 22 49 15.54 +06 35 37.7                o~0B1I291
     K09U00G HC2009 11 08.28138 22 49 15.28 +06 35 34.8                o~0B1I291
     K09U00G  C2009 11 09.20426 22 48 20.59 +06 28 38.9          21.9 Vo~0B1I291
     K09U00G  C2009 11 09.20806 22 48 20.30 +06 28 37.3          21.9 Vo~0B1I291
     K09U00G  C2009 11 09.21184 22 48 20.03 +06 28 35.4          22.4 Vo~0B1I291

Station data:
(147) Osservatorio Astronomico di Suno (N45.63725 E8.57391)  Italy.
(204) Schiaparelli Observatory (N45.8680 E8.7708)  Italy.   Observer L. Buzzi.
     0.60-m f/4.64 Newtonian + CCD.
(215) Buchloe (N48.0173 E10.7328)  Germany.   Observer W. Hasubick.  0.44-m
    f/4.6 reflector + CCD.
(291) LPL/Spacewatch II (N31.9617 W111.5991)  US/Arizona.  1.8-m f/2.7
    reflector + CCD.
(703) Catalina Sky Survey (N32.41707 W110.73264)  US/Arizona.   Observers E.
    J. Christensen, A. R. Gibbs, A. D. Grauer, R. E. Hill, J. A. Johnson, R. A.
    Kowalski, S. M. Larson, F. C. Shelly.  0.68 m Schmidt + CCD.
(704) Lincoln Laboratory ETS, New Mexico (N33.81830 W106.65907)  US/New Mexico.
      Observers M. Blythe, F. Shelly, M. Bezpalko, R. Huber, L. Manguso, S.
    Adams, D. Torres, T. Brothers, S. Partridge.  Measurers J. Stuart, R.
    Sayer, J. Evans, P. Hopman.  1.0-m f/2.15 reflector + CCD.
(B33) Libbiano Observatory, Peccioli (N43.5554 E10.7783)  Italy.
(D21) Shenton Park (S31.9616 E115.8150)  Australia/WA.
(H05) Edmund Kline Observatory, Deer Trail (N39.6444 W103.9293)  US/Colorado.
(H36) Sandlot Observatory, Scranton (N38.7977 W95.7064)  US/Kansas.   Observer
    G. Hug.  0.56-m reflector + CCD.
(H55) Astronomical Research Observatory, Charleston (N39.4881 W88.1442)  US/Illinois.
      Observer R. Holmes.  0.81-m f/4.0 astrograph + CCD.
(J95) Great Shefford (N51.47497 W1.44700)  UK.   Observer P. Birtwhistle. 
    0.30-m f/6.3 Schmidt-Cassegrain + CCD.

Orbital elements:  2009 UG
   Perihelion 2010 Mar 12.679873 +/- 0.0202 TT = 16:19:01 (JD 2455268.179873)
Epoch 2009 Nov  9.0 TT = JDT 2455144.5   Earth MOID: 0.0126   Ve: 0.0152
M 186.232221 +/- 0.012              Me: 0.0479                Find_Orb
n   1.404980255 +/- 0.000329        Peri.  201.751304 +/- 0.0013
a   0.789506849 +/- 0.000123        Node    14.081642 +/- 0.0024
e   0.37420353 +/- 0.000341         Incl.    4.899912 +/- 0.006
P   0.70/256.23d           H 23.5   G  0.15   U  7.4  
q 0.494070593 +/- 0.000347    Q 1.084943104 +/- 9.96e-5
55 of 60 observations 2009 Oct. 16-Nov. 9; mean residual 0".378
Residuals in arcseconds: 
091016 704(1.57+ 3.26+)   091016 B33 .772+ .541+    091018 H55 .670- .026-    
091016 704 .172- .872+    091016 204 .326- .142+    091018 H36 .117- .140-    
091016 704 .018+ .768+    091016 B33 .033- 711µ-    091018 H36 .394- .167-    
091016 704 .057+ .944+    091016 147 .445+ .177-    091018 H36 .184- .317-    
091016 704 .038- .752+    091016 147(1.92+ .240-)   091019 H55 .145+ .411+    
091016 703 .069+ .165+    091017 H05 .166- .293-    091019 H55 .144+ .251+    
091016 703 .109+ .303-    091017 H05 .385+ .104+    091019 H55 .122- .309-    
091016 703 .422- .206-    091017 H05 .103+ .231-    091019 H55 .011- .137-    
091016 703 .052+ .351-    091017 704 .195- .543+    091019 215 .085- .295-    
091016 703 .087+ .131-    091017 704 .144- .527+    091019 215 .128- .387-    
091016 703 .055- .130+    091017 704(.502+ 2.49+)   091019 215 .089- .456-    
091016 703 .269- .138+    091017 704(.224+ 1.47+)   091025 H55 .965+ .199+    
091016 703 .020+ .101-    091017 704 .329+ .207-    091025 H55 .759+ .247-    
091016 J95 .080+ .038+    091017 D21 .576+ .564+    091025 H55(1.06+ 1.67-)   
091016 J95 .178+ .075-    091017 D21 .186- 1.26+    091108 291 .082+ .056+    
091016 204 .250- .037-    091017 D21 .248- .175+    091108 291 .628- .820+    
091016 J95 .158+ .248-    091018 H55 .130- .011+    091108 291 .060- .100-    
091016 B33 .461- .571-    091018 H55 .177- .219-    091109 291 .049+ .057-    
091016 204 .243- .143-    091018 H55 .661- 1.11-    091109 291 .162- .042+    
091016 B33 .352- .011-    091018 H55 .550- .231+    091109 291 .110- .166-    

Ephemerides (geocentric):
Date (UTC)   RA              Dec         delta   r     elong  mag " sig PA
---- -- --  ------------   ------------  ------ ------ -----  --- ---- ---
2016 09 30  23 58 45.823   -58 22 29.30  .01383 1.0082 118.6 16.4  35d  68
2016 10 01  23 03 55.046   -44 01 12.14  .01692 1.0119 129.1 16.5  29d  73
2016 10 02  22 41 15.375   -34 01 24.87  .02096 1.0156 134.1 16.8  23d  73
2016 10 03  22 29 11.049   -27 16 59.58  .02552 1.0192 136.2 17.2  18d  71
2016 10 04  22 21 46.895   -22 35 11.19  .03036 1.0226 136.8 17.6 919'  70
2016 10 05  22 16 50.377   -19 10 29.68  .03537 1.0260 136.6 17.9 769'  68
2016 10 06  22 13 21.338   -16 36 05.67  .04049 1.0293 136.1 18.2 656'  67
2016 10 07  22 10 48.632   -14 35 50.52  .04569 1.0325 135.4 18.5 568'  66
2016 10 08  22 08 54.538   -12 59 38.75  .05095 1.0356 134.7 18.8 498'  65
2016 10 09  22 07 28.227   -11 40 56.88  .05624 1.0386 133.8 19.0 442'  65
2016 10 10  22 06 22.706   -10 35 19.84  .06157 1.0415 133.0 19.2 395'  64
2016 10 11  22 05 33.249   -09 39 43.40  .06692 1.0443 132.1 19.4 356'  63
2016 10 12  22 04 56.541   -08 51 55.85  .07230 1.0470 131.2 19.6 323'  63
2016 10 13  22 04 30.181   -08 10 20.76  .07769 1.0496 130.3 19.8 295'  62
2016 10 14  22 04 12.387   -07 33 46.04  .08310 1.0521 129.4 20.0 270'  61
